Retour au catalogue

STARLINK-31179

ActifCommunicationsVLEO
NORAD 58750·PAYLOAD·🇺🇸 United States

Lancé Jan 7, 2024 depuis Cape Canaveral Space Force Station

Loading…

Prochains Passages (prochaines 24 heures)

TLE

FraisSource: CelesTrak SupGP

Époque: Sep 14, 2026, 21:13 UTC

1 58750C 24005Y   26257.88451389  .00035444  00000+0  12840-2 0  2577
2 58750  43.0007 231.4963 0001566 260.0664 189.4256 15.27554603    15

Suivez STARLINK-31179 en temps réel avec AllMySat

Download on the App Store